Madison, SD

9:24 PM CST on December 11, 2019 (GMT -0600)
Madison Municipal

Weather History for KMDS - November, 2019

Change the Weather History Date:

Tuesday, November 12, 2019

  Actual Average Record
Temperature  
Mean Temperature 14 °F -  
Max Temperature 26 °F 38 °F 57 °F (2011)
Min Temperature 1 °F 20 °F 1 °F (2013)
Degree Days  
Heating Degree Days 52    
Moisture  
Dew Point 10 °F    
Average Humidity 88    
Maximum Humidity 100    
Minimum Humidity 64    
Precipitation  
Precipitation 0.00 in - - ()
Sea Level Pressure  
Sea Level Pressure 30.21 in    
Wind  
Wind Speed 11 mph ()    
Max Wind Speed 30 mph    
Max Gust Speed 40 mph    
Visibility 10.0 miles    
Events      
Averages and records for this station are not official NWS values.
T = Trace of Precipitation, MM = Missing Value Source: Averaged Metar Reports

Daily Weather History Graph

Daily Weather History Graph

Search for Another Location

Airport or City:

Astronomy

Nov. 12, 2019 Rise Set
Actual Time 7:19 AM CST 5:05 PM CST
Civil Twilight 6:48 AM CST 5:36 PM CST
Nautical Twilight 6:13 AM CST 6:10 PM CST
Astronomical Twilight 5:39 AM CST 6:44 PM CST
Moon 5:33 PM CST 7:10 AM CST
Length of Visible Light 10h 47m
Length of Day
9h 46m
Full, 100% of the Moon is Illuminated
Nov 12
Full
Nov 19
Last Quarter
Nov 26
New
Dec 4
First Quarter
Dec 11
Full

Hourly Weather History & Observations

Time (CST) Temp. Windchill Dew Point Humidity Pressure Visibility Wind Dir Wind Speed Gust Speed Precip Events Conditions
12:00 AM 1.4 °F - 1.4 °F 100% 30.56 in 10.0 mi Calm Calm - N/A   Clear
12:15 AM 1.4 °F -6.2 °F 1.4 °F 100% 30.56 in 10.0 mi South 3.5 mph - N/A   Clear
12:20 AM 1.4 °F -6.2 °F 1.4 °F 100% 30.56 in 10.0 mi SSW 3.5 mph - N/A   Clear
12:35 AM 1.4 °F -6.2 °F 1.4 °F 100% 30.55 in 10.0 mi South 3.5 mph - N/A   Clear
12:40 AM 1.4 °F -6.2 °F 1.4 °F 100% 30.56 in 10.0 mi SSW 3.5 mph - N/A   Clear
12:55 AM 1.4 °F -6.2 °F 1.4 °F 100% 30.55 in 10.0 mi SW 3.5 mph - N/A   Clear
1:15 AM 1.4 °F -6.2 °F 1.4 °F 100% 30.54 in 10.0 mi SSW 3.5 mph - N/A   Clear
1:20 AM 1.4 °F -6.2 °F 1.4 °F 100% 30.54 in 10.0 mi SSW 3.5 mph - N/A   Clear
1:35 AM 1.4 °F -8.3 °F 1.4 °F 100% 30.53 in 10.0 mi SSW 4.6 mph - N/A   Clear
1:55 AM 1.4 °F -9.9 °F 1.4 °F 100% 30.53 in 10.0 mi SW 5.8 mph - N/A   Clear
2:15 AM 1.4 °F -8.3 °F -0.4 °F 92% 30.52 in 10.0 mi SSW 4.6 mph - N/A   Clear
2:20 AM 1.4 °F -8.3 °F -0.4 °F 92% 30.52 in 10.0 mi SSW 4.6 mph - N/A   Clear
2:35 AM 1.4 °F -9.9 °F 1.4 °F 100% 30.53 in 10.0 mi SW 5.8 mph - N/A   Clear
2:40 AM 1.4 °F -9.9 °F 1.4 °F 100% 30.53 in 10.0 mi SSW 5.8 mph - N/A   Clear
2:55 AM 1.4 °F -8.3 °F 1.4 °F 100% 30.52 in 10.0 mi SSW 4.6 mph - N/A   Clear
3:00 AM 1.4 °F -8.3 °F -0.4 °F 92% 30.52 in 10.0 mi SSW 4.6 mph - N/A   Clear
3:15 AM 1.4 °F -9.9 °F 1.4 °F 100% 30.51 in 10.0 mi SW 5.8 mph - N/A   Clear
3:20 AM 3.2 °F -9.1 °F 1.4 °F 92% 30.51 in 10.0 mi SW 6.9 mph - N/A   Clear
3:35 AM 3.2 °F -10.3 °F 1.4 °F 92% 30.49 in 10.0 mi SSW 8.1 mph - N/A   Clear
3:55 AM 3.2 °F -11.3 °F 1.4 °F 92% 30.48 in 10.0 mi SSW 9.2 mph - N/A   Clear
4:00 AM 3.2 °F -11.3 °F 1.4 °F 92% 30.48 in 10.0 mi SSW 9.2 mph - N/A   Clear
4:15 AM 3.2 °F -11.3 °F 1.4 °F 92% 30.46 in 10.0 mi SSW 9.2 mph - N/A   Clear
4:35 AM 5.0 °F -10.0 °F 3.2 °F 92% 30.45 in 10.0 mi SSW 10.4 mph - N/A   Clear
4:55 AM 5.0 °F -9.1 °F 3.2 °F 92% 30.45 in 10.0 mi South 9.2 mph - N/A   Clear
5:00 AM 5.0 °F -9.1 °F 3.2 °F 92% 30.45 in 10.0 mi South 9.2 mph - N/A   Clear
5:15 AM 5.0 °F -10.0 °F 3.2 °F 92% 30.44 in 10.0 mi South 10.4 mph - N/A   Clear
5:20 AM 5.0 °F -10.0 °F 5.0 °F 100% 30.43 in 10.0 mi South 10.4 mph - N/A   Clear
5:35 AM 5.0 °F -9.1 °F 3.2 °F 92% 30.42 in 10.0 mi South 9.2 mph - N/A   Clear
5:55 AM 5.0 °F -10.0 °F 5.0 °F 100% 30.40 in 10.0 mi South 10.4 mph - N/A   Clear
6:15 AM 5.0 °F -10.0 °F 5.0 °F 100% 30.40 in 10.0 mi South 10.4 mph - N/A   Clear
6:20 AM 5.0 °F -10.8 °F 5.0 °F 100% 30.39 in 10.0 mi South 11.5 mph - N/A   Clear
6:35 AM 5.0 °F -10.8 °F 5.0 °F 100% 30.38 in 10.0 mi South 11.5 mph - N/A   Clear
6:55 AM 5.0 °F -11.6 °F 5.0 °F 100% 30.38 in 10.0 mi South 12.7 mph - N/A   Clear
7:15 AM 6.8 °F -8.6 °F 5.0 °F 92% 30.37 in 10.0 mi South 11.5 mph - N/A   Clear
7:35 AM 6.8 °F -9.3 °F 5.0 °F 92% 30.35 in 10.0 mi South 12.7 mph 17.3 mph N/A   Clear
7:55 AM 6.8 °F -10.7 °F 5.0 °F 92% 30.34 in 10.0 mi South 15.0 mph 19.6 mph N/A   Clear
8:15 AM 6.8 °F -11.3 °F 6.8 °F 100% 30.33 in 10.0 mi South 16.1 mph - N/A   Clear
8:20 AM 8.6 °F -10.0 °F 6.8 °F 92% 30.32 in 10.0 mi South 18.4 mph - N/A   Clear
8:35 AM 8.6 °F -9.5 °F 6.8 °F 92% 30.31 in 10.0 mi South 17.3 mph - N/A   Clear
8:55 AM 10.4 °F -8.2 °F 8.6 °F 92% 30.31 in 10.0 mi South 19.6 mph - N/A   Clear
9:15 AM 10.4 °F -8.2 °F 8.6 °F 92% 30.30 in 10.0 mi South 19.6 mph 23.0 mph N/A   Clear
9:35 AM 12.2 °F -7.1 °F 8.6 °F 85% 30.28 in 10.0 mi South 23.0 mph 29.9 mph N/A   Clear
9:40 AM 12.2 °F -6.7 °F 8.6 °F 85% 30.27 in 10.0 mi South 21.9 mph 29.9 mph N/A   Clear
10:05 AM 14.0 °F -4.3 °F 10.4 °F 86% 30.24 in 10.0 mi South 21.9 mph 31.1 mph N/A   Clear
10:15 AM 15.8 °F -3.4 °F 10.4 °F 79% 30.23 in 10.0 mi South 26.5 mph 31.1 mph N/A   Clear
10:20 AM 15.8 °F -2.7 °F 10.4 °F 79% 30.23 in 10.0 mi South 24.2 mph 33.4 mph N/A   Clear
10:35 AM 15.8 °F -3.4 °F 10.4 °F 79% 30.21 in 10.0 mi South 26.5 mph 32.2 mph N/A   Clear
10:40 AM 15.8 °F -3.1 °F 10.4 °F 79% 30.21 in 10.0 mi South 25.3 mph 34.5 mph N/A   Clear
11:00 AM 17.6 °F -0.6 °F 10.4 °F 73% 30.18 in 10.0 mi South 25.3 mph 38.0 mph N/A   Clear
11:15 AM 17.6 °F -0.6 °F 12.2 °F 79% 30.17 in 10.0 mi South 25.3 mph 35.7 mph N/A   Clear
11:35 AM 17.6 °F -0.6 °F 12.2 °F 79% 30.15 in 10.0 mi South 25.3 mph 36.8 mph N/A   Clear
11:55 AM 19.4 °F 1.1 °F 12.2 °F 74% 30.12 in 10.0 mi South 27.6 mph 36.8 mph N/A   Clear
12:15 PM 19.4 °F 0.8 °F 14.0 °F 80% 30.09 in 10.0 mi South 28.8 mph 36.8 mph N/A   Clear
12:35 PM 21.2 °F 3.3 °F 12.2 °F 68% 30.08 in 10.0 mi South 28.8 mph 38.0 mph N/A   Clear
1:15 PM 23.0 °F 5.4 °F 14.0 °F 68% 30.04 in 10.0 mi South 29.9 mph 40.3 mph N/A   Clear
1:35 PM 23.0 °F 5.4 °F 14.0 °F 68% 30.03 in 10.0 mi South 29.9 mph 38.0 mph N/A   Clear
1:55 PM 23.0 °F 5.7 °F 14.0 °F 68% 30.03 in 10.0 mi South 28.8 mph 35.7 mph N/A   Clear
2:15 PM 23.0 °F 6.3 °F 14.0 °F 68% 30.01 in 10.0 mi South 26.5 mph 33.4 mph N/A   Clear
2:35 PM 24.8 °F 8.4 °F 14.0 °F 64% 30.00 in 10.0 mi South 27.6 mph 34.5 mph N/A   Clear
2:55 PM 24.8 °F 10.3 °F 15.8 °F 69% 30.01 in 10.0 mi South 20.7 mph 32.2 mph N/A   Clear
3:15 PM 24.8 °F 9.6 °F 15.8 °F 69% 30.00 in 10.0 mi South 23.0 mph 31.1 mph N/A   Clear
3:35 PM 24.8 °F 10.0 °F 15.8 °F 69% 29.99 in 10.0 mi South 21.9 mph 33.4 mph N/A   Clear
3:55 PM 24.8 °F 10.0 °F 15.8 °F 69% 29.98 in 10.0 mi South 21.9 mph 34.5 mph N/A   Clear
4:15 PM 24.8 °F 9.3 °F 17.6 °F 74% 29.96 in 10.0 mi South 24.2 mph 32.2 mph N/A   Clear
4:35 PM 24.8 °F 9.0 °F 17.6 °F 74% 29.95 in 10.0 mi South 25.3 mph 32.2 mph N/A   Clear
5:15 PM 23.0 °F 8.0 °F 17.6 °F 80% 29.93 in 10.0 mi South 20.7 mph 29.9 mph N/A   Clear
5:35 PM 23.0 °F 8.3 °F 19.4 °F 86% 29.93 in 10.0 mi South 19.6 mph 26.5 mph N/A   Clear
5:55 PM 24.8 °F 10.0 °F 19.4 °F 80% 29.91 in 10.0 mi South 21.9 mph 29.9 mph N/A   Clear
6:15 PM 24.8 °F 9.6 °F 19.4 °F 80% 29.91 in 10.0 mi South 23.0 mph 27.6 mph N/A   Clear
6:35 PM 23.0 °F 7.6 °F 19.4 °F 86% 29.91 in 10.0 mi South 21.9 mph 28.8 mph N/A   Clear
6:55 PM 23.0 °F 8.0 °F 19.4 °F 86% 29.90 in 10.0 mi South 20.7 mph 27.6 mph N/A   Clear
7:15 PM 23.0 °F 7.6 °F 19.4 °F 86% 29.89 in 10.0 mi South 21.9 mph 28.8 mph N/A   Clear
7:35 PM 23.0 °F 7.2 °F 19.4 °F 86% 29.87 in 10.0 mi South 23.0 mph 28.8 mph N/A   Clear
7:55 PM 23.0 °F 8.0 °F 21.2 °F 93% 29.88 in 10.0 mi South 20.7 mph 27.6 mph N/A   Clear
8:15 PM 23.0 °F 9.2 °F 21.2 °F 93% 29.87 in 10.0 mi South 17.3 mph 21.9 mph N/A   Clear
8:35 PM 23.0 °F 8.7 °F 21.2 °F 93% 29.85 in 10.0 mi South 18.4 mph 23.0 mph N/A   Clear
8:55 PM 23.0 °F 9.2 °F 21.2 °F 93% 29.84 in 10.0 mi South 17.3 mph 23.0 mph N/A   Clear
9:15 PM 23.0 °F 9.2 °F 23.0 °F 100% 29.84 in 10.0 mi SSW 17.3 mph 23.0 mph N/A   Clear
9:35 PM 24.8 °F 12.4 °F 23.0 °F 93% 29.83 in 10.0 mi South 15.0 mph - N/A   Clear
9:55 PM 24.8 °F 11.9 °F 23.0 °F 93% 29.82 in 10.0 mi South 16.1 mph 20.7 mph N/A   Partly Cloudy
10:15 PM 24.8 °F 12.9 °F 23.0 °F 93% 29.83 in 10.0 mi SSW 13.8 mph - N/A   Mostly Cloudy
10:35 PM 24.8 °F 13.4 °F 23.0 °F 93% 29.82 in 10.0 mi SSW 12.7 mph - N/A   Overcast
10:55 PM 24.8 °F 14.0 °F 23.0 °F 93% 29.82 in 10.0 mi SSW 11.5 mph - N/A   Overcast
11:15 PM 24.8 °F 14.0 °F 23.0 °F 93% 29.81 in 10.0 mi SSW 11.5 mph - N/A   Overcast
11:35 PM 26.6 °F 16.2 °F 23.0 °F 86% 29.81 in 10.0 mi SSW 11.5 mph - N/A   Overcast
11:55 PM 26.6 °F 15.7 °F 23.0 °F 86% 29.79 in 10.0 mi SSW 12.7 mph - N/A   Mostly Cloudy